Temp
-6 -6 -6 -6 -6 -6 -6 -6 -6 -6 -6 -7 -7 -7 -7 -7 -7 -7 -7 -8 -8 -8 -8 -8 -9 -9 -10 -10 -10 -10 -10 -10 -10 -10 -10 -10 -10 -10 -10 -11 -11 -11 -11 -11 -11
-7 -6 -6 -6 -6 -6 -6 -7 -7 -7 -7 -7 -8 -8 -8 -8 -8 -8 -8 -8 -8 -8 -8 -8 -9 -9 -10 -11 -11 -10 -11 -10 -10 -10 -10 -10 -10 -10 -10 -11 -11 -11 -11 -11 -11
-7 -7 -6 -6 -6 -6 -7 -7 -7 -7 -7 -8 -8 -8 -8 -8 -8 -8 -8 -8 -9 -8 -8 -8 -9 -10 -11 -11 -11 -11 -11 -10 -10 -11 -10 -10 -11 -11 -11 -11 -11 -11 -11 -11 -11
-7 -7 -6 -6 -7 -7 -7 -7 -7 -7 -8 -8 -8 -8 -8 -8 -8 -8 -8 -9 -8 -8 -8 -8 -9 -10 -10 -11 -11 -11 -11 -11 -11 -11 -11 -11 -11 -11 -11 -11 -11 -11 -11 -11 -11
-7 -7 -7 -7 -7 -7 -7 -7 -7 -8 -8 -8 -8 -8 -8 -8 -8 -8 -9 -8 -8 -8 -8 -8 -9 -10 -10 -10 -11 -11 -11 -11 -11 -11 -11 -11 -11 -11 -11 -11 -11 -11 -11 -11 -11
-7 -7 -7 -7 -7 -8 -8 -8 -8 -8 -8 -8 -8 -8 -8 -8 -8 -8 -8 -8 -8 -8 -8 -8 -8 -9 -9 -10 -11 -11 -11 -11 -11 -11 -11 -10 -11 -11 -11 -11 -11 -11 -11 -11 -11
-7 -7 -8 -8 -8 -8 -8 -8 -8 -8 -8 -8 -9 -9 -8 -8 -8 -8 -8 -8 -8 -8 -8 -8 -9 -9 -9 -11 -11 -11 -11 -11 -11 -11 -11 -11 -11 -11 -11 -11 -11 -11 -11 -11 -11
-8 -8 -8 -8 -8 -8 -8 -8 -8 -9 -9 -9 -9 -8 -8 -8 -8 -8 -8 -8 -8 -8 -8 -9 -9 -9 -9 -11 -11 -11 -11 -11 -11 -11 -11 -11 -11 -11 -11 -11 -11 -11 -12 -12 -11
-8 -8 -8 -8 -8 -8 -8 -9 -9 -9 -8 -9 -9 -9 -8 -9 -8 -8 -8 -8 -8 -8 -9 -9 -9 -9 -10 -11 -11 -11 -11 -11 -11 -11 -11 -11 -11 -12 -12 -12 -12 -12 -12 -12 -12
-8 -8 -8 -8 -8 -8 -9 -8 -8 -8 -8 -9 -9 -9 -9 -9 -9 -9 -9 -9 -9 -9 -9 -9 -10 -11 -11 -11 -11 -11 -11 -11 -11 -11 -11 -11 -11 -11 -11 -12 -12 -12 -12 -12 -11
-9 -9 -9 -9 -9 -9 -9 -9 -9 -8 -9 -8 -9 -9 -9 -9 -9 -9 -9 -9 -9 -9 -10 -11 -11 -11 -11 -11 -11 -11 -11 -11 -11 -11 -11 -11 -11 -11 -11 -12 -12 -12 -12 -12 -13
-9 -9 -9 -9 -9 -9 -9 -9 -9 -9 -9 -9 -9 -9 -9 -9 -9 -9 -9 -9 -10 -10 -10 -11 -11 -11 -11 -11 -11 -11 -11 -11 -11 -12 -12 -11 -11 -11 -11 -12 -12 -12 -12 -13 -13
-9 -9 -9 -9 -9 -9 -9 -9 -9 -9 -9 -9 -9 -9 -9 -9 -9 -9 -10 -10 -10 -11 -11 -11 -11 -11 -11 -11 -11 -11 -12 -12 -12 -12 -11 -11 -11 -11 -12 -12 -12 -12 -13 -14 -14
-9 -9 -9 -9 -9 -9 -9 -9 -9 -9 -9 -9 -9 -9 -9 -10 -10 -10 -10 -10 -11 -11 -11 -11 -11 -11 -11 -11 -12 -12 -12 -12 -12 -12 -13 -12 -12 -13 -12 -12 -13 -13 -13 -14 -14
-9 -9 -9 -9 -9 -9 -9 -9 -9 -9 -9 -9 -9 -9 -9 -10 -10 -10 -10 -11 -11 -11 -11 -11 -11 -12 -12 -12 -12 -12 -12 -12 -12 -12 -12 -13 -13 -13 -14 -13 -13 -14 -14 -14 -15
-9 -9 -9 -9 -9 -9 -9 -9 -9 -9 -9 -9 -9 -9 -10 -10 -10 -10 -10 -11 -11 -12 -12 -11 -12 -12 -12 -12 -12 -12 -12 -12 -13 -13 -13 -13 -13 -14 -13 -13 -13 -14 -14 -15 -15
-9 -9 -9 -9 -9 -9 -9 -9 -9 -9 -9 -10 -10 -10 -10 -10 -10 -11 -11 -11 -12 -12 -12 -11 -12 -12 -12 -12 -11 -11 -13 -13 -13 -12 -12 -13 -14 -13 -13 -14 -14 -14 -15 -15 -14
-9 -9 -9 -9 -9 -9 -9 -9 -9 -10 -10 -10 -10 -10 -11 -11 -11 -12 -12 -11 -11 -12 -12 -13 -12 -12 -12 -12 -12 -12 -12 -13 -13 -13 -14 -14 -14 -13 -13 -14 -14 -14 -15 -15 -15
-9 -9 -9 -9 -9 -9 -9 -9 -9 -10 -10 -10 -11 -11 -11 -11 -11 -12 -12 -12 -12 -12 -12 -13 -12 -12 -11 -11 -12 -12 -12 -12 -12 -14 -14 -14 -13 -13 -14 -14 -14 -14 -15 -15 -15
-9 -9 -9 -9 -9 -9 -9 -9 -9 -10 -10 -11 -11 -11 -11 -11 -12 -12 -12 -12 -12 -12 -12 -12 -13 -11 -11 -12 -11 -12 -12 -13 -14 -13 -14 -14 -15 -14 -14 -14 -14 -15 -15 -15 -15
-10 -9 -9 -9 -9 -9 -9 -9 -9 -10 -10 -11 -11 -11 -11 -11 -11 -12 -12 -12 -12 -12 -12 -12 -11 -11 -12 -12 -12 -13 -12 -13 -13 -13 -14 -15 -14 -14 -14 -15 -15 -15 -16 -16 -16
-10 -10 -9 -9 -9 -9 -9 -9 -10 -10 -10 -11 -11 -11 -12 -12 -12 -12 -12 -12 -11 -11 -11 -11 -11 -12 -12 -12 -12 -12 -12 -13 -13 -13 -14 -13 -14 -14 -14 -15 -15 -16 -16 -16 -16
-10 -10 -9 -9 -10 -9 -9 -10 -10 -10 -10 -11 -11 -12 -12 -12 -11 -11 -11 -11 -11 -11 -11 -11 -11 -12 -12 -11 -12 -12 -13 -13 -13 -13 -13 -14 -14 -14 -14 -15 -16 -16 -16 -17 -17
-9 -9 -10 -10 -10 -9 -10 -10 -10 -10 -10 -11 -11 -11 -11 -11 -11 -11 -11 -11 -11 -11 -11 -11 -12 -12 -12 -12 -13 -13 -13 -13 -13 -13 -14 -14 -14 -14 -15 -16 -16 -16 -17 -17 -17
-10 -10 -10 -10 -10 -10 -10 -10 -10 -10 -11 -11 -11 -11 -11 -11 -11 -11 -11 -11 -11 -11 -11 -11 -11 -12 -12 -13 -13 -13 -13 -13 -13 -14 -14 -14 -14 -15 -15 -16 -16 -17 -17 -18 -18
-10 -10 -10 -10 -10 -10 -10 -10 -10 -11 -11 -11 -11 -11 -11 -11 -11 -11 -11 -11 -11 -11 -11 -11 -12 -12 -12 -13 -13 -13 -13 -13 -13 -14 -14 -14 -14 -15 -15 -16 -16 -17 -17 -18 -18
-10 -10 -10 -10 -10 -10 -10 -10 -10 -11 -11 -11 -11 -11 -11 -11 -11 -12 -12 -11 -11 -11 -11 -12 -12 -13 -13 -13 -13 -13 -13 -14 -14 -14 -14 -14 -14 -15 -15 -16 -17 -17 -17 -18 -18
Height
5893 5893 5893 5893 5892 5892 5891 5890 5889 5888 5887 5887 5887 5888 5890 5892 5893 5895 5896 5897 5898 5899 5899 5900 5901 5902 5903 5905 5906 5909 5913 5915 5913 5913 5912 5910 5909 5906 5904 5902 5900 5897 5895 5894 5893
5891 5891 5891 5891 5890 5890 5889 5887 5886 5886 5885 5885 5886 5887 5888 5891 5893 5894 5896 5896 5898 5898 5899 5900 5901 5903 5904 5905 5907 5908 5912 5911 5912 5911 5910 5909 5907 5905 5904 5901 5899 5896 5893 5892 5891
5890 5889 5889 5889 5889 5888 5887 5886 5884 5884 5884 5884 5885 5887 5888 5890 5893 5893 5895 5896 5897 5898 5899 5900 5901 5903 5905 5906 5907 5908 5909 5910 5910 5909 5908 5907 5906 5904 5902 5899 5898 5895 5893 5891 5889
5888 5888 5887 5887 5887 5886 5885 5885 5883 5884 5884 5884 5886 5887 5889 5891 5894 5893 5895 5897 5898 5899 5899 5900 5901 5903 5904 5906 5907 5907 5908 5909 5909 5908 5908 5906 5904 5903 5901 5898 5896 5893 5891 5889 5886
5886 5886 5886 5886 5885 5885 5884 5884 5884 5884 5884 5886 5887 5889 5890 5892 5893 5894 5896 5898 5898 5899 5900 5901 5902 5902 5904 5905 5907 5907 5908 5908 5908 5907 5906 5904 5902 5901 5899 5896 5893 5890 5888 5886 5883
5884 5885 5885 5885 5884 5884 5883 5884 5885 5885 5886 5888 5889 5890 5892 5894 5894 5895 5897 5898 5898 5900 5900 5901 5901 5901 5903 5904 5906 5906 5907 5907 5907 5906 5904 5903 5901 5900 5897 5894 5890 5887 5883 5882 5880
5883 5883 5884 5884 5884 5884 5883 5885 5886 5886 5888 5890 5891 5892 5893 5894 5894 5896 5897 5898 5899 5900 5900 5900 5900 5902 5903 5904 5905 5905 5905 5904 5904 5903 5902 5901 5899 5896 5894 5890 5887 5885 5881 5877 5875
5882 5883 5884 5883 5884 5884 5884 5885 5887 5888 5889 5890 5892 5893 5894 5894 5895 5896 5897 5899 5900 5900 5900 5900 5900 5902 5903 5903 5904 5904 5904 5903 5902 5901 5900 5898 5896 5893 5890 5888 5884 5881 5877 5874 5869
5881 5882 5883 5883 5883 5884 5885 5885 5887 5888 5889 5891 5893 5893 5894 5895 5896 5897 5898 5899 5900 5900 5900 5901 5900 5902 5903 5903 5904 5903 5903 5901 5899 5898 5896 5895 5892 5889 5886 5883 5880 5876 5871 5867 5863
5881 5882 5883 5882 5883 5884 5885 5886 5886 5888 5890 5892 5893 5895 5895 5896 5896 5897 5899 5900 5900 5900 5901 5901 5901 5901 5903 5906 5909 5901 5900 5898 5896 5895 5892 5890 5888 5885 5882 5878 5875 5870 5865 5861 5856
5879 5880 5881 5882 5884 5885 5886 5886 5889 5890 5891 5893 5894 5894 5895 5896 5896 5898 5899 5899 5900 5901 5901 5902 5908 5909 5904 5903 5902 5900 5898 5896 5893 5891 5888 5884 5882 5878 5875 5872 5867 5862 5857 5851 5847
5878 5879 5881 5882 5883 5885 5886 5887 5888 5891 5892 5892 5893 5894 5895 5895 5896 5898 5899 5900 5900 5900 5901 5904 5903 5903 5902 5901 5900 5898 5895 5892 5889 5885 5883 5880 5876 5872 5867 5864 5858 5853 5849 5844 5839
5877 5879 5880 5882 5884 5885 5886 5888 5889 5890 5892 5893 5894 5895 5895 5896 5895 5897 5898 5899 5900 5901 5903 5905 5902 5901 5900 5899 5897 5895 5892 5888 5886 5881 5878 5875 5870 5863 5860 5855 5850 5846 5842 5837 5832
5877 5878 5880 5881 5884 5884 5886 5888 5889 5891 5893 5894 5894 5894 5895 5895 5895 5896 5897 5899 5900 5901 5900 5900 5899 5898 5896 5894 5894 5895 5887 5884 5880 5877 5876 5868 5866 5855 5853 5849 5844 5840 5836 5831 5827
5875 5877 5879 5881 5882 5884 5886 5887 5889 5891 5892 5893 5892 5893 5894 5896 5895 5895 5897 5897 5898 5898 5899 5898 5896 5894 5893 5891 5890 5888 5884 5880 5875 5871 5867 5860 5859 5853 5846 5842 5837 5831 5829 5825 5820
5874 5876 5878 5880 5882 5883 5885 5887 5889 5892 5891 5892 5892 5892 5894 5894 5894 5895 5896 5896 5896 5896 5896 5895 5893 5892 5890 5887 5886 5882 5879 5876 5871 5867 5865 5859 5857 5852 5843 5839 5833 5827 5823 5819 5815
5873 5875 5877 5879 5881 5882 5884 5886 5889 5889 5891 5891 5892 5892 5893 5893 5894 5894 5895 5895 5896 5896 5894 5892 5891 5889 5887 5884 5879 5879 5875 5875 5874 5871 5866 5855 5849 5842 5839 5833 5828 5824 5820 5814 5809
5873 5874 5876 5878 5879 5881 5883 5886 5887 5888 5889 5890 5891 5892 5892 5892 5893 5893 5893 5893 5893 5893 5893 5893 5890 5885 5883 5881 5879 5873 5872 5868 5862 5862 5858 5848 5845 5839 5834 5829 5824 5819 5814 5809 5804
5873 5874 5875 5876 5878 5880 5883 5884 5885 5886 5888 5889 5891 5892 5891 5892 5892 5891 5891 5891 5890 5890 5891 5888 5883 5882 5880 5876 5875 5870 5864 5860 5854 5852 5849 5849 5838 5834 5829 5825 5820 5815 5809 5804 5798
5872 5872 5874 5875 5877 5879 5881 5882 5883 5885 5886 5888 5889 5890 5889 5890 5890 5889 5888 5888 5886 5886 5884 5882 5880 5877 5874 5871 5865 5863 5858 5854 5851 5848 5845 5845 5835 5831 5826 5821 5815 5809 5802 5797 5790
5871 5871 5873 5874 5876 5878 5880 5881 5882 5883 5885 5886 5886 5886 5886 5886 5885 5884 5884 5884 5882 5880 5879 5878 5878 5871 5868 5865 5860 5856 5851 5849 5848 5845 5842 5840 5834 5828 5822 5816 5809 5803 5796 5790 5783
5869 5871 5872 5873 5876 5876 5878 5879 5880 5881 5881 5882 5882 5881 5881 5881 5881 5881 5880 5879 5877 5876 5874 5873 5871 5867 5863 5859 5854 5851 5849 5847 5844 5842 5838 5834 5830 5824 5817 5812 5805 5799 5791 5784 5776
5867 5869 5870 5871 5873 5874 5875 5876 5877 5878 5878 5878 5877 5877 5876 5876 5878 5877 5876 5875 5873 5872 5869 5868 5864 5863 5853 5852 5851 5847 5845 5844 5842 5839 5835 5832 5826 5820 5813 5806 5799 5792 5785 5778 5771
5865 5866 5868 5869 5870 5872 5872 5873 5873 5873 5874 5874 5873 5872 5873 5873 5873 5872 5871 5870 5869 5867 5866 5864 5860 5857 5854 5851 5847 5846 5844 5843 5840 5836 5832 5828 5821 5815 5808 5801 5794 5787 5779 5772 5766
5862 5864 5865 5866 5867 5868 5869 5869 5870 5870 5870 5869 5868 5868 5868 5869 5869 5868 5867 5866 5864 5862 5860 5857 5854 5852 5849 5847 5845 5844 5843 5841 5837 5833 5829 5824 5818 5811 5804 5797 5789 5781 5774 5767 5761
5859 5860 5861 5863 5864 5864 5865 5866 5866 5866 5866 5865 5865 5865 5865 5866 5866 5865 5864 5862 5860 5858 5855 5852 5850 5848 5846 5845 5844 5843 5841 5838 5834 5830 5826 5820 5814 5807 5800 5792 5784 5776 5770 5763 5756
5855 5856 5857 5859 5859 5860 5861 5861 5862 5862 5862 5861 5861 5861 5862 5862 5861 5860 5859 5857 5855 5852 5850 5849 5847 5845 5845 5844 5843 5843 5839 5836 5832 5828 5823 5817 5811 5803 5796 5788 5780 5773 5766 5759 5753
Wind_Speed
11 12 11 12 13 15 15 15 14 15 14 13 12 10 9 9 9 7 5 4 3 4 6 6 4 5 8 8 10 8 7 5 4 3 9 8 6 10 8 6 9 12 16 18 17
11 10 11 13 14 15 15 15 13 11 9 8 7 6 6 6 5 5 5 5 6 7 7 6 5 6 11 12 11 8 7 4 5 8 9 8 10 10 3 7 11 13 17 19 21
10 9 11 13 14 14 13 9 7 6 3 2 2 2 3 4 6 7 8 9 9 8 6 6 6 7 16 13 11 8 8 6 7 10 10 11 4 3 4 9 14 16 19 20 24
8 8 10 11 12 10 7 5 3 1 1 2 3 3 5 6 8 9 11 10 8 6 6 5 8 10 18 16 13 9 8 9 9 11 11 16 10 8 9 15 18 19 20 22 25
7 8 9 9 8 5 3 1 1 2 3 3 4 5 6 7 9 11 11 9 7 5 4 3 7 10 16 18 19 15 12 14 15 14 16 14 10 12 15 18 20 20 25 25 23
6 7 6 5 3 2 2 3 3 4 4 5 6 6 7 7 8 11 9 8 6 4 4 1 2 6 9 14 15 16 17 16 15 18 19 12 11 15 19 22 21 23 26 25 30
6 4 3 1 1 3 4 4 4 5 6 8 8 7 6 6 8 9 7 7 5 3 3 0 3 3 3 5 9 8 11 12 15 15 12 14 15 16 19 22 21 23 26 30 37
6 4 1 2 3 4 5 6 6 7 8 8 6 6 5 6 6 7 6 3 2 1 1 2 3 3 3 2 6 7 7 9 12 12 10 12 14 17 20 23 26 29 31 35 30
7 5 2 3 4 6 8 9 9 7 6 5 4 5 5 5 5 3 2 1 1 1 5 4 4 4 2 3 8 8 8 12 13 15 17 18 18 20 23 27 31 34 34 33 39
8 5 3 4 6 8 10 10 9 7 5 5 5 5 5 5 4 3 1 2 3 3 4 7 6 3 1 4 7 14 14 17 19 21 22 23 24 26 28 30 30 33 35 38 37
7 6 5 6 8 9 10 9 8 6 5 5 4 4 5 4 3 3 3 3 2 3 7 7 9 10 10 11 16 20 23 24 24 23 22 22 23 25 26 28 30 30 33 34 33
7 7 7 9 10 9 9 8 8 6 6 6 5 6 5 4 2 2 1 2 3 3 4 3 6 10 13 16 18 22 24 21 19 20 21 24 27 28 30 31 34 34 34 35 34
8 9 11 11 10 8 7 7 7 7 6 7 7 7 6 5 3 2 0 2 2 2 2 6 7 9 10 11 9 11 15 21 25 27 26 29 34 32 36 34 34 32 30 30 28
9 10 11 11 10 8 8 8 9 9 8 8 7 7 6 6 6 5 3 2 3 5 6 6 8 10 9 10 12 14 21 23 25 28 24 33 27 35 27 29 30 33 30 25 29
10 11 11 10 8 8 9 9 10 9 11 9 9 7 7 7 7 7 3 4 7 9 6 9 11 11 12 14 15 19 24 27 32 33 32 30 33 28 34 31 31 30 25 30 26
10 12 11 10 9 9 9 9 8 9 8 9 8 7 6 7 6 6 4 6 10 12 9 8 8 9 13 17 19 24 27 29 32 32 24 29 32 25 29 31 31 28 28 27 26
10 11 9 9 9 8 8 8 8 9 7 8 7 5 6 6 5 5 5 7 8 6 10 10 9 12 16 22 27 25 27 24 23 22 23 32 31 28 27 28 27 27 26 24 28
10 9 7 8 8 8 8 8 9 8 8 7 5 3 5 4 5 6 7 8 8 9 9 7 17 20 21 24 27 32 30 26 32 22 21 28 18 25 23 25 25 27 25 30 30
9 9 9 9 9 8 8 8 8 8 8 7 5 5 6 6 6 7 8 9 9 10 9 14 20 22 25 28 28 31 33 34 31 20 17 17 23 21 24 24 24 27 29 32 36
10 9 9 10 9 9 8 6 6 6 7 9 9 9 10 9 10 10 11 11 12 14 16 20 25 26 28 30 34 31 32 25 17 16 11 12 18 23 24 26 28 30 31 34 36
11 10 9 10 10 9 7 7 6 6 8 10 12 13 13 14 13 13 14 15 18 21 22 21 21 31 31 31 33 33 26 18 12 11 12 12 19 24 26 29 31 28 30 39 40
13 11 11 11 11 10 8 7 7 8 9 10 12 13 15 16 16 18 19 18 20 20 20 21 24 29 32 32 28 22 17 11 12 14 16 18 20 25 29 28 28 25 37 38 39
15 13 13 12 11 10 10 10 10 11 11 13 15 17 19 20 20 18 19 18 20 20 22 24 27 28 35 27 19 17 11 11 13 15 17 19 25 27 30 32 30 34 36 35 33
15 14 12 12 11 11 13 13 13 13 13 15 17 20 20 18 17 17 17 18 19 22 24 26 27 23 18 18 15 7 8 10 14 16 21 23 27 30 32 33 34 35 35 33 33
13 13 12 13 13 14 14 14 13 13 14 16 19 20 19 18 18 18 18 19 20 23 26 25 20 17 15 11 4 5 8 12 16 18 21 25 28 31 32 34 36 35 33 33 38
14 14 14 13 13 13 14 13 13 13 13 16 18 19 19 18 18 18 18 20 22 24 22 18 17 14 9 3 2 5 10 15 18 20 23 26 30 33 35 37 37 33 33 35 35
15 14 14 13 13 14 14 15 15 15 15 17 17 18 18 17 18 18 18 20 20 19 17 16 13 9 4 2 3 7 12 17 19 21 25 28 31 35 38 38 35 33 35 33 28
Wind_Direction
263 272 283 292 298 295 291 292 296 291 283 280 274 267 257 249 242 235 221 206 168 132 122 127 122 119 145 141 160 164 118 164 203 312 322 318 339 355 351 337 339 336 344 351 1
260 273 287 294 294 290 294 297 293 287 288 284 276 262 243 230 214 187 175 153 130 131 129 133 136 147 169 170 183 185 167 217 261 298 300 310 319 328 310 320 337 336 341 340 346
260 278 288 293 290 295 298 293 287 284 298 298 268 227 202 176 157 155 145 139 131 135 131 139 133 154 179 198 210 206 226 243 279 284 294 315 309 217 262 308 321 327 330 341 336
268 281 288 288 293 297 286 281 286 314 115 137 158 144 148 149 154 142 141 136 129 124 114 122 125 163 190 205 227 223 248 252 290 287 291 306 291 253 286 301 313 315 323 328 331
267 279 283 292 297 288 277 268 133 131 114 123 120 132 148 153 151 142 140 136 130 121 105 95 127 160 195 212 222 237 254 271 285 290 298 308 294 295 300 307 305 312 316 315 319
255 262 283 292 286 255 155 130 125 114 109 114 118 130 144 141 143 145 147 147 136 139 111 75 147 176 188 203 220 237 254 269 279 292 299 318 318 311 307 302 303 306 307 310 311
240 242 273 266 201 163 128 124 115 112 119 120 119 122 127 141 149 160 163 167 176 167 125 266 256 223 199 172 215 242 263 280 291 298 311 316 312 308 309 303 302 299 303 308 312
215 216 221 162 168 137 126 114 125 125 125 122 116 124 118 130 157 177 193 199 206 168 53 353 297 358 236 212 309 310 297 283 289 294 293 290 300 306 302 301 299 298 300 301 313
204 204 184 156 145 149 138 141 149 148 141 133 136 131 128 127 133 152 131 59 39 46 58 28 350 354 315 289 323 288 285 287 286 286 293 293 296 294 293 292 293 294 296 300 305
198 197 173 145 156 160 160 170 161 158 160 155 159 156 159 145 130 125 90 15 11 37 37 42 35 3 308 52 280 280 281 285 288 291 289 287 288 287 287 291 294 294 293 293 302
199 192 176 176 177 170 165 163 163 171 171 164 163 196 176 163 147 116 58 15 4 6 51 43 91 176 204 225 246 263 280 282 284 287 290 298 306 305 298 296 298 300 302 305 308
204 197 191 198 197 185 176 172 176 184 184 177 174 194 186 189 175 121 66 25 3 19 28 97 217 238 252 272 274 272 276 278 299 305 306 304 306 307 308 306 304 306 306 304 302
193 191 201 206 205 201 195 193 197 196 193 193 188 192 206 225 225 176 267 333 354 319 117 222 289 288 290 291 300 285 296 302 307 306 301 304 309 305 313 309 305 305 306 306 306
202 197 205 213 213 207 205 201 202 198 199 208 213 221 218 220 245 257 259 270 257 273 292 282 297 305 302 319 332 302 319 321 323 322 315 319 316 317 317 313 309 310 310 305 306
213 217 215 215 212 213 212 211 213 210 214 212 213 221 220 214 231 255 271 266 266 284 316 299 310 315 312 311 312 303 309 317 318 318 322 318 323 306 309 317 315 318 312 310 310
220 227 222 217 215 213 213 213 213 207 217 209 210 216 221 227 237 246 258 252 268 280 288 298 309 310 311 309 309 311 313 318 328 331 340 297 310 300 304 316 314 309 309 313 312
215 221 221 215 213 207 205 203 206 206 199 195 202 217 233 252 252 247 260 252 261 262 281 296 304 304 309 322 316 317 321 322 312 303 301 295 311 307 313 315 314 309 311 312 314
202 209 207 207 206 206 208 202 208 209 193 186 193 221 236 266 275 281 276 263 267 253 272 288 308 309 310 314 314 313 319 317 316 306 296 308 305 311 319 318 313 310 310 310 312
206 207 208 211 202 202 205 207 206 208 207 207 214 227 248 261 265 259 263 266 279 276 280 298 295 304 310 313 316 314 318 319 317 318 330 289 311 323 328 323 320 316 313 312 311
208 211 211 219 214 208 207 206 208 205 214 223 238 236 246 257 266 260 270 277 285 292 298 301 304 308 313 316 318 319 319 323 321 328 326 311 314 328 327 323 320 315 311 315 314
218 223 223 227 229 224 211 212 218 220 227 233 239 240 246 259 271 289 292 295 295 293 296 300 306 307 314 318 317 316 322 329 337 345 337 325 318 322 325 326 323 318 316 318 317
232 235 242 240 240 241 243 238 241 244 248 251 255 256 261 268 276 281 285 294 299 301 301 305 308 306 309 313 313 318 326 345 353 342 340 332 327 327 328 325 321 311 315 318 321
242 245 246 244 244 247 255 264 262 254 245 247 254 260 263 270 277 281 276 282 291 296 300 307 308 308 313 314 316 323 347 356 351 345 348 339 332 330 327 327 324 319 320 321 320
242 242 237 239 244 251 260 265 265 261 255 247 249 256 265 275 278 281 283 288 293 297 302 307 305 304 300 301 308 329 349 351 349 348 341 342 333 335 332 327 325 324 323 325 327
233 238 243 248 254 257 259 261 263 262 256 249 251 258 264 269 277 284 289 292 295 301 307 307 309 308 306 303 298 329 345 346 346 345 342 339 338 335 332 330 330 329 329 328 329
243 248 250 252 254 257 261 262 259 256 254 254 257 262 268 275 282 289 292 296 303 306 307 308 308 308 301 279 306 338 345 344 345 344 343 343 341 338 336 336 335 335 334 333 335
239 244 249 253 255 255 256 257 258 259 259 261 265 269 276 282 285 287 289 294 301 302 304 307 305 293 244 257 336 350 346 344 346 347 346 346 342 341 341 339 338 337 333 333 335